Flag for U.S.A. Weather past 2 weeks in Winder, Georgia, U.S.A.

Now
69 °F

Low clouds.


Feels Like: 69 °F
Forecast: 61 / 81 °F
Wind: No wind

Location: Winder-Barrow Airport

Current Time: Sep 30, 2014 at 12:01:12 PM

Latest Report: Sep 30, 2014 at 11:15 AM


Visibility: 10 mi

Pressure: 30.01 "Hg

Humidity: 92%

Dew point: 67 °F

Location of WinderLocation

Historic Weather in Winder — Graph

°F

Winder temperature yesterday

Maximum temperature yesterday: 70 °F (at 2:55 PM)
Minimum temperature yesterday: 67 °F (at 10:55 PM)
Average temperature yesterday: 69 °F

Past Weeks' High & Low Weather Summary

 TemperatureHumidityPressure
High89 °F (Sep 16, 4:15 PM)100% (Sep 15, 10:15 AM)30.35 "Hg (Sep 15, 10:15 AM)
Low62 °F (Sep 23, 3:15 AM)46% (Sep 17, 3:35 PM)29.92 "Hg (Sep 17, 4:15 PM)
Average72 °F83%30.11 "Hg
* Reported Sep 15 10:15 AM — Sep 30 10:55 AM, Winder, Weather by CustomWeather, © 2014

Note: Actual official high and low records may vary slightly from our data, if they occured in-between our weather recording intervals... More about our weather records

Advertising

Winder weather history for previous 24 hours

 ConditionsComfort  
Time TempWeatherWind HumidityBarometerVisibility
10:55 AM
Sep 30
67 °FLow clouds.No wind97%30.01 "Hg7 mi
10:35 AM67 °FLow clouds.No wind97%30.02 "Hg10 mi
10:15 AM67 °FLow clouds.No wind98%30.02 "Hg7 mi
9:55 AM67 °FLow clouds.No wind98%30.02 "Hg7 mi
9:35 AM67 °FLow clouds.No wind99%30.02 "Hg7 mi
9:15 AM67 °FLow clouds.No wind99%30.02 "Hg7 mi
8:55 AM66 °FLow clouds.No wind99%30.02 "Hg7 mi
8:35 AM66 °FFog.No wind100%30.01 "Hg1 mi
8:15 AM65 °FFog.No wind100%30.01 "Hg0 mi
7:55 AM64 °FFog.No wind100%30.00 "Hg0 mi
7:35 AM63 °FFog.No wind100%30.00 "Hg0 mi
7:15 AM65 °FFog.No wind100%30.00 "Hg0 mi
6:55 AM65 °FFog.No wind100%29.99 "Hg0 mi
6:35 AM66 °FPassing clouds.No wind100%29.98 "Hg3 mi
6:15 AM67 °FFog.No wind100%29.98 "Hg4 mi
5:55 AM67 °FOvercast.No wind100%29.98 "Hg4 mi
5:35 AM67 °FFog.No wind100%29.98 "Hg4 mi
5:15 AM67 °FFog.No wind100%29.98 "Hg4 mi
4:55 AM67 °FFog.No wind100%29.98 "Hg4 mi
4:15 AM67 °FFog.No wind100%29.98 "Hg5 mi
3:55 AM67 °FOvercast.No wind100%29.98 "Hg5 mi
3:15 AM67 °FFog.No wind100%29.98 "Hg4 mi
2:55 AM67 °FFog.No wind100%29.99 "Hg5 mi
2:35 AM67 °FFog.No wind100%29.99 "Hg5 mi
2:15 AM67 °FFog.No wind100%30.00 "Hg5 mi
1:55 AM67 °FFog.No wind100%30.00 "Hg5 mi
1:15 AM67 °FFog.No wind100%30.00 "Hg5 mi
12:55 AM67 °FFog.No wind100%30.00 "Hg5 mi
12:15 AM67 °FFog.No wind100%30.00 "Hg5 mi
11:55 PM
Sep 29
67 °FFog.No wind100%30.01 "Hg5 mi
11:15 PM67 °FLow clouds.No wind100%30.01 "Hg7 mi
10:55 PM67 °FFog.No wind100%30.01 "Hg5 mi
10:35 PM67 °FPartly cloudy.No wind100%30.01 "Hg10 mi
10:15 PM68 °FMostly cloudy.No wind100%30.02 "Hg10 mi
9:55 PM68 °FMostly cloudy.No wind99%30.02 "Hg10 mi
9:35 PM69 °FLow clouds.3 mph99%30.02 "Hg10 mi
9:15 PM69 °FLow clouds.No wind100%30.01 "Hg10 mi
8:55 PM69 °FLow clouds.3 mph100%30.01 "Hg10 mi
8:35 PM69 °FLow clouds.3 mph100%30.00 "Hg10 mi
8:15 PM69 °FLow clouds.No wind100%30.00 "Hg10 mi
7:55 PM69 °FMostly cloudy.3 mph100%30.00 "Hg10 mi
7:35 PM69 °FLow clouds.No wind100%30.00 "Hg7 mi
7:15 PM69 °FDrizzle. Low clouds.No wind100%30.00 "Hg4 mi
6:55 PM69 °FRain. Low clouds.No wind100%30.00 "Hg7 mi
6:35 PM69 °FDrizzle. Low clouds.No wind100%30.00 "Hg3 mi
6:15 PM69 °FDrizzle. Low clouds.No wind100%30.00 "Hg3 mi
5:55 PM69 °FDrizzle. Low clouds.No wind100%30.00 "Hg4 mi
5:35 PM69 °FDrizzle. Low clouds.No wind100%30.00 "Hg3 mi
5:15 PM69 °FDrizzle. Low clouds.No wind99%30.00 "Hg2 mi
4:55 PM69 °FDrizzle. Low clouds.No wind100%30.00 "Hg2 mi
4:35 PM69 °FDrizzle. Low clouds.No wind100%30.01 "Hg2 mi
4:15 PM69 °FDrizzle. Low clouds.No wind100%30.01 "Hg3 mi
3:55 PM70 °FLight rain. Low clouds.No wind98%30.01 "Hg5 mi
3:35 PM70 °FLow clouds.5 mph93%30.01 "Hg10 mi
3:15 PM70 °FLow clouds.3 mph93%30.01 "Hg10 mi
2:55 PM70 °FLow clouds.3 mph93%30.02 "Hg10 mi
2:35 PM70 °FLow clouds.No wind93%30.02 "Hg10 mi
2:15 PM70 °FLow clouds.No wind93%30.03 "Hg10 mi
1:55 PM70 °FLow clouds.3 mph93%30.04 "Hg10 mi
1:35 PM70 °FLow clouds.No wind93%30.04 "Hg10 mi
1:15 PM69 °FLow clouds.No wind95%30.05 "Hg7 mi
12:55 PM69 °FLow clouds.5 mph95%30.05 "Hg7 mi
12:35 PM69 °FLow clouds.No wind96%30.06 "Hg10 mi
12:15 PM69 °FLow clouds.No wind97%30.07 "Hg10 mi
Weather by CustomWeather, © 2014

See weather overviewHow to use our weather pages